Location: Mount Cross
(36.6390°N, 79.4878°W)
Time: 00:34:16
(UTC+00:00)

SR - Pass Details

Date: 02 April 2023
Orbit: 580 x 867 km, 66.7° (Epoch: 08 June)

Event Time Altitude Azimuth Distance (km) Brightness Sun altitude
Rises 15:01:06 0° 327° (NNW) 2,841 ? 44.9°
Reaches altitude 10° 15:03:19 10° 323° (NW) 1,960 ? 45.2°
Maximum altitude 15:07:36 54° 246° (WSW) 774 ? 45.9°
Drops below altitude 10° 15:12:10 10° 170° (S) 2,087 ? 46.7°
Sets 15:14:36 0° 165° (SSE) 3,046 ? 47.0°
